Location: Waldport
(44.4270°N, 124.0680°W)
Time: 16:37:09
(UTC-08:00)

Daily predictions for brighter satellites

Satellite Brightness Start Highest point End
(mag) Time Altitude Azimuth Time Altitude Azimuth Time Altitude Azimuth
METEOR-M 4.4 18:12:55 10° SE 18:17:58 45° ENE 18:23:03 10° N
IDEFIX/ARIANE 42P 4.5 18:13:56 10° SSW 18:18:47 37° W 18:23:40 10° NNW
Cosmos 1745 Rocket 4.2 18:14:11 10° SSE 18:20:16 51° E 18:26:19 10° NNE
SJ-6B 3.7 18:17:05 10° SE 18:20:37 30° ENE 18:24:06 10° N
NOAA 12 4.3 18:16:34 10° SE 18:21:40 50° ENE 18:26:49 10° N
BREEZE-M DEB (TANK) 4.1 18:07:35 10° WNW 18:21:45 88° NNE 18:25:26 10° ESE
ALOS 3.3 18:18:49 10° ESE 18:22:37 25° ENE 18:26:25 10° N
GEOS 3 Rocket 4.4 18:19:36 10° NE 18:24:20 33° ESE 18:29:03 10° S
Cosmos 1484 Rocket 3.5 18:23:07 10° S 18:27:03 60° W 18:30:58 10° NNW
Cosmos 1461 3.6 18:24:52 10° NNW 18:28:28 31° NE 18:32:06 10° ESE
Spot 2 Rocket 4.4 18:28:00 10° ESE 18:32:09 26° ENE 18:36:20 10° N
Meteor 1-14 Rocket 4.4 18:27:38 10° S 18:33:33 71° E 18:39:32 10° NNE
Cosmos 2082 Rocket 3.8 18:32:40 10° WSW 18:37:52 36° NW 18:43:07 10° NNE
Cosmos 1633 4.2 18:36:13 10° ESE 18:38:18 15° E 18:40:23 10° NE
HJ-1C 4.4 18:36:57 10° SE 18:39:50 27° ENE 18:42:44 10° NNE
SL-16 R/B 2.3 18:34:55 10° NNW 18:40:33 60° ENE 18:46:09 10° SE
ASTRO F (AKARI) 4.5 18:39:20 10° NNE 18:43:03 80° ESE 18:46:33 10° S
SKYMED 2 4.0 18:40:43 10° N 18:45:03 67° WNW 18:49:21 10° SSW
Cosmos 1975 Rocket 3.3 18:40:55 10° NNW 18:45:14 72° W 18:49:32 10° S
Okean 1 3.7 18:43:55 10° N 18:47:48 43° ENE 18:51:41 10° SSE
Meteor 1-20 Rocket 4.4 18:42:41 10° S 18:48:22 58° E 18:54:06 10° NNE
Cosmos 44 Rocket 3.7 18:43:54 10° NW 18:48:37 62° WSW 18:53:14 10° SSE
Cosmos 1340 3.7 18:46:03 10° NNE 18:49:17 25° ENE 18:52:28 10° SE
Tiangong 2 1.4 18:49:47 10° W 18:52:49 55° S 18:54:54 18° ESE
CENTAUR R/B 3.7 18:45:56 10° NW 18:53:40 62° WSW 19:01:52 10° SSE
Meteor 1-28 Rocket 3.8 18:50:03 10° N 18:53:49 62° WNW 18:57:34 10° SSW
Cosmos 2322 Rocket 2.1 18:54:17 10° NNW 18:59:56 86° ENE 19:05:33 10° SSE
CZ-2D R/B 4.2 18:57:59 16° ESE 19:00:02 26° ENE 19:03:14 10° NNE
Cosmos 1536 Rocket 3.6 18:59:37 10° N 19:04:01 57° E 19:08:25 10° SSE
NOSS 2-2 (E) 4.2 19:01:48 10° SW 19:05:53 57° NW 19:10:45 10° NNE
Helios 1B rocket 4.4 19:09:41 13° SE 19:09:41 13° SE 19:10:27 10° SE
Resurs 01 Rocket 1.7 19:04:07 10° SSE 19:08:24 52° ENE 19:12:42 10° N
Cosmos 2322 4.2 19:03:44 10° NNW 19:09:05 39° NE 19:12:40 19° ESE
Cosmos 1818 3.9 19:06:50 10° S 19:11:59 45° ESE 19:16:11 15° NE
Nadezhda 1 Rocket 4.3 19:06:51 10° NNW 19:12:55 68° W 19:18:54 10° S
SL-19 R/B 4.3 19:07:23 10° SSE 19:12:57 68° ENE 19:18:52 10° NNW
H-2A R/B 2.9 19:09:31 10° SE 19:13:02 45° ENE 19:16:38 10° N
Meteor 1-25 Rocket 4.4 19:10:40 10° SSW 19:16:15 75° WNW 19:21:57 10° N
Cosmos 44 3.9 19:12:35 10° NW 19:16:54 50° WSW 19:21:03 10° SSE
deb Kosmos-1763 4.1 19:14:22 10° SSW 19:18:10 87° WNW 19:22:00 10° NNE
Meteor 2-4 Rocket 4.1 19:13:58 10° N 19:19:11 37° ENE 19:22:25 20° SE
COSMOS 2428 3.7 19:14:55 10° N 19:19:43 27° NE 19:21:04 25° ENE
Cosmos 1812 3.8 19:17:03 10° NNW 19:20:47 47° W 19:24:30 10° SSW
Cosmos 2181 Rocket 3.9 19:15:20 10° N 19:21:32 64° E 19:27:46 10° SSE
DNEPR-1 R/B 3.8 19:18:36 10° NW 19:22:51 67° WSW 19:27:00 10° SSE
DELTA 2 R/B (1) 4.0 19:19:10 10° W 19:24:36 52° S 19:27:32 26° ESE
Meteor 1-11 Rocket 3.9 19:19:47 10° SSE 19:25:18 49° E 19:30:57 10° NNE
USA 186 4.1 19:28:39 13° NNE 19:28:39 13° NNE 19:29:02 10° N
FENGYUN 3A 3.7 19:20:55 10° SSE 19:26:20 87° WSW 19:31:48 10° NNW
Cosmos 2237 Rocket 4.0 19:31:00 10° N 19:33:59 15° NE 19:33:59 15° NE
Cosmos 1570 Rocket 4.5 19:29:37 10° N 19:34:30 38° ENE 19:35:19 36° E
Cosmos 807 4.5 19:31:45 10° N 19:35:05 66° E 19:37:00 28° SSE
Resurs 1-3 3.5 19:31:21 10° SSE 19:35:44 85° ENE 19:40:09 10° NNW
Cosmos 676 Rocket 3.8 19:31:49 10° SSW 19:36:59 79° ESE 19:42:13 10° NNE
Cosmos 407 Rocket 3.7 19:32:00 10° SSW 19:37:14 74° WNW 19:42:34 10° NNE
Cosmos 1300 Rocket 3.4 19:35:23 10° S 19:39:46 72° E 19:44:12 10° NNE
ATLAS CENTAUR R/B 4.3 19:40:17 10° NW 19:41:25 11° NNW 19:42:32 10° NNW
SAR-Lupe-1 3.9 19:41:47 67° ENE 19:41:47 67° ENE 19:45:14 10° N
Cosmos 2184 Rocket 4.2 19:38:35 10° SSE 19:44:32 45° E 19:50:28 10° NNE
Cosmos 1602 3.6 19:41:34 10° S 19:45:26 89° ENE 19:49:21 10° N
SAR-Lupe-4 3.4 19:45:13 60° SSE 19:45:50 90° NNW 19:49:26 10° NNW
Cosmos 2074 Rocket 4.1 19:40:03 10° SSE 19:45:59 48° E 19:51:58 10° NNE
Cosmos 1709 Rocket 4.1 19:41:25 10° SSW 19:47:39 75° W 19:53:51 10° N
Cosmos 2360 Rocket 2.1 19:47:44 10° NNW 19:53:26 89° NE 19:56:26 29° SSE
Cosmos 2208 Rocket 4.1 19:50:56 10° NNW 19:56:18 54° ENE 19:56:40 53° E
Cosmos 2219 Rocket 3.2 19:52:47 10° N 19:56:50 28° NE 19:56:50 28° NE
ALOS 3.7 19:55:33 10° SSW 19:59:52 37° W 20:04:14 10° NNW
GEOS 3 Rocket 4.4 19:58:05 14° NNE 20:02:28 50° NW 20:07:32 10° WSW
SL-16 R/B 4.4 20:02:13 10° NNE 20:03:09 11° NNE 20:03:09 11° NNE
Cosmos 1238 Rocket 3.9 20:02:27 10° NNW 20:05:04 33° W 20:05:04 33° W
Cosmos 2285 Rocket 4.2 20:00:24 10° NNW 20:06:41 50° ENE 20:06:55 50° ENE
Spot 1 4.3 20:05:50 48° SSW 20:06:45 63° WSW 20:10:50 10° NNW
Okean 1 Rocket 3.1 20:02:26 10° SSW 20:06:55 78° W 20:11:26 10° N
Cosmos 1140 Rocket 3.3 20:02:29 10° SSW 20:07:37 89° ESE 20:09:54 34° NNE
Cosmos 1833 4.2 20:06:18 10° SSW 20:12:01 80° WNW 20:16:01 20° NNE
Cosmos 1633 4.1 20:09:31 10° SW 20:12:57 36° WNW 20:16:25 10° N
Cosmos 2333 Rocket 3.4 20:10:27 10° N 20:14:12 29° NNE 20:14:12 29° NNE
Helios 1A 3.6 20:15:22 46° SW 20:16:07 53° W 20:20:12 10° NNW
Okean 1-7 Rocket 3.8 20:12:15 10° NNW 20:16:49 70° W 20:16:52 70° WSW
Cosmos 614 Rocket 4.5 20:19:13 10° SSW 20:22:50 48° SSW 20:22:50 48° SSW
Envisat 3.3 20:27:52 60° NNW 20:27:52 60° NNW 20:32:00 10° NNW
Tiangong 2 4.4 20:26:34 10° WSW 20:26:53 12° WSW 20:26:53 12° WSW
ERS-1 Rocket 4.5 20:45:44 28° N 20:45:44 28° N 20:48:06 10° NNW
Resurs 01 Rocket 4.4 20:42:29 10° SW 20:45:11 16° W 20:47:55 10° NW
USA 229 DEB 3.7 20:38:23 10° NW 20:45:19 77° NNE 20:45:19 77° NNE
USA 229 3.7 20:38:29 10° NW 20:45:24 76° NNE 20:45:24 76° NNE
USA 215 4.3 20:58:23 33° NNE 20:58:23 33° NNE 21:04:04 10° NW
ATLAS 2AS CENTAUR R/B 4.4 20:56:47 10° NNW 21:03:11 24° NNE 21:03:28 24° NNE
COSMOS 2428 3.6 20:58:47 10° NW 21:03:08 46° WNW 21:03:08 46° WNW
Cosmos 2237 Rocket 4.0 21:13:34 10° NNW 21:15:49 25° NNW 21:15:49 25° NNW
NOSS 3-1 (C) 4.5 21:12:43 10° NNW 21:18:14 50° N 21:18:14 50° N
Cosmos 2219 Rocket 4.2 21:36:27 10° NW 21:38:34 23° NW 21:38:34 23° NW
